Clothilde, Quebec

4:01 AM EST on January 23, 2017 (GMT -0500)
St. Clothilde

Weather History for CWIT - October, 2012

Change the Weather History Date:

Monday, October 1, 2012

  Actual Average Record
Temperature  
Mean Temperature 55 °F -  
Max Temperature 59 °F - - ()
Min Temperature 51 °F - - ()
Degree Days  
Heating Degree Days 10    
Growing Degree Days 5 (Base 50)    
Moisture  
Dew Point 53 °F    
Average Humidity 94    
Maximum Humidity 100    
Minimum Humidity 79    
Precipitation  
Precipitation 0.12 in - - ()
Sea Level Pressure  
Sea Level Pressure 29.65 in    
Wind  
Wind Speed 5 mph ()    
Max Wind Speed 10 mph    
Max Gust Speed 21 mph    
T = Trace of Precipitation, MM = Missing Value Source: Averaged Metar Reports

Daily Weather History Graph

Daily Weather History Graph

Search for Another Location

Airport or City:

Trip Planner

Search our weather history database for the weather conditions in past years. The results will help you decide how hot, cold, wet, or windy it might be!

Date:

Astronomy

Oct. 01, 2012 Rise Set
Actual Time 6:53 AM EDT 6:34 PM EDT
Civil Twilight 6:24 AM EDT 7:03 PM EDT
Nautical Twilight 5:49 AM EDT 7:37 PM EDT
Astronomical Twilight 5:15 AM EDT 8:12 PM EDT
Moon 7:02 PM EDT (10/1) 8:26 AM EDT (10/1)
Length of Visible Light 12h 39m
Length of Day
11h 40m
Full, 98% of the Moon is Illuminated
Oct 1
Full
Oct 8
Last Quarter
Oct 15
New
Oct 21
First Quarter
Oct 29
Full

Hourly Weather History & Observations

Time (EDT) Temp. Dew Point Humidity Pressure Visibility Wind Dir Wind Speed Gust Speed Precip Events Conditions
12:00 AM 52.3 °F 52.3 °F 100% 29.57 in - West 5.8 mph - 0.02 in   Unknown
1:00 AM 52.2 °F 52.2 °F 100% 29.55 in - West 4.6 mph - 0.05 in   Unknown
2:00 AM 52 °F 52 °F 100% 29.53 in - West 5.8 mph - -  
2:00 AM 52.2 °F 52.2 °F 100% 29.53 in - West 5.8 mph - 0.06 in   Unknown
3:00 AM 52.0 °F 52.0 °F 100% 29.51 in - WSW 4.6 mph - 0.04 in   Unknown
4:00 AM 52.0 °F 52.0 °F 100% 29.49 in - West 6.9 mph - 0.02 in   Unknown
5:00 AM 51.8 °F 51.8 °F 100% 29.49 in - West 5.8 mph - N/A   Unknown
6:00 AM 52.0 °F 52.0 °F 100% 29.50 in - West 6.9 mph - 0.03 in   Unknown
7:00 AM 52.2 °F 52.2 °F 100% 29.51 in - West 8.1 mph - 0.01 in   Unknown
8:00 AM 53 °F 53 °F 99% 29.54 in - West 6.9 mph - -  
8:00 AM 52.9 °F 52.7 °F 99% 29.54 in - West 6.9 mph - N/A   Unknown
9:00 AM 53.4 °F 53.2 °F 99% 29.57 in - NW 5.8 mph - N/A   Unknown
10:00 AM 54.9 °F 54.5 °F 99% 29.60 in - West 6.9 mph - N/A   Unknown
11:00 AM 56.8 °F 54.1 °F 91% 29.62 in - West 10.4 mph 18.4 mph N/A   Unknown
12:00 PM 57.2 °F 53.4 °F 87% 29.65 in - West 8.1 mph - N/A   Unknown
1:00 PM 57.2 °F 53.2 °F 87% 29.67 in - West 9.2 mph 20.7 mph N/A   Unknown
2:00 PM 58 °F 54 °F 80% 29.70 in - West 8.1 mph - -  
2:00 PM 57.7 °F 53.6 °F 86% 29.70 in - West 8.1 mph - N/A   Unknown
3:00 PM 57.6 °F 52.5 °F 83% 29.72 in - West 8.1 mph - N/A   Unknown
4:00 PM 57.9 °F 52.3 °F 82% 29.74 in - West 8.1 mph - N/A   Unknown
5:00 PM 58.8 °F 52.2 °F 79% 29.76 in - West 8.1 mph - N/A   Unknown
6:00 PM 58.1 °F 53.8 °F 86% 29.78 in - WNW 3.5 mph - N/A   Unknown
7:00 PM 57.0 °F 54.5 °F 91% 29.81 in - West 3.5 mph - N/A   Unknown
8:00 PM 55 °F 54 °F 96% 29.82 in - WSW 1.2 mph - -  
8:00 PM 55.2 °F 54.1 °F 96% 29.82 in - WSW 1.2 mph - N/A   Unknown
9:00 PM 54.7 °F 54.5 °F 99% 29.83 in - South 1.2 mph - N/A   Unknown
10:00 PM 54.7 °F 54.7 °F 100% 29.86 in - SSW 2.3 mph - N/A   Unknown
11:00 PM 53.2 °F 52.5 °F 97% 29.85 in - SE 1.2 mph - N/A   Unknown